Location: Joplin, MO
(37.0842°N, 94.5133°W)
Time: 21:23:21
(UTC+01:00)

Courier 1B - Visible Passes

Search period start: 21 March 2023 00:00
Search period end: 31 March 2023 01:00
Orbit: 962 x 1209 km, 28.3° (Epoch: 21 March)

Date Brightness Start Highest point End Pass type
(mag) Time Alt. Az. Time Alt. Az. Time Alt. Az.
21 Mar 8.2 03:09:54 10° WSW 03:16:04 39° S 03:17:47 33° SSE visible
21 Mar 9.8 05:03:55 10° WSW 05:04:41 13° WSW 05:04:41 13° WSW visible
22 Mar 8.3 02:16:08 10° WSW 02:22:25 39° S 02:27:25 15° ESE visible
22 Mar 8.7 04:10:01 10° WSW 04:14:19 30° SW 04:14:19 30° SW visible
23 Mar 8.3 03:16:07 10° WSW 03:22:15 37° S 03:23:56 32° SSE visible
23 Mar 10.0 05:10:42 10° WSW 05:10:50 10° WSW 05:10:50 10° WSW visible
24 Mar 8.4 02:22:14 10° WSW 02:28:36 39° S 02:33:33 15° ESE visible
24 Mar 9.0 04:16:33 10° WSW 04:20:27 24° SW 04:20:27 24° SW visible
25 Mar 8.5 03:22:30 10° WSW 03:28:22 31° SSW 03:30:05 27° SSE visible
26 Mar 8.6 03:28:30 10° WSW 03:34:44 35° S 03:39:43 14° SE visible
26 Mar 9.4 05:23:32 10° WSW 05:26:37 18° SW 05:26:37 18° SW visible
27 Mar 9.0 04:29:10 10° WSW 04:34:24 23° SSW 04:36:16 21° S visible
28 Mar 8.9 03:34:57 10° WSW 03:40:48 29° SSW 03:45:57 12° SE visible
28 Mar 9.8 05:32:00 10° SW 05:32:51 11° SW 05:32:51 11° SW visible
29 Mar 9.4 04:36:28 10° WSW 04:40:21 16° SSW 04:42:33 14° S visible
30 Mar 9.4 03:41:47 10° WSW 03:46:47 21° SSW 03:51:36 10° SSE visible
